Lapse_Rate
2.8 3.3 3.1 3.1 3.9 4.3 4.9 5.6 6.4 7.5 7.1 3.0 3.2 3.3 3.6 3.9 3.6 4.4 4.1 4.1 5.1 5.8 5.4 5.0 4.6 4.1 3.7 3.8 3.8 3.6 2.6 2.0 2.2 2.3 2.3 1.6 2.2 1.9
3.7 2.7 2.7 3.2 3.5 3.8 4.7 5.0 5.5 6.1 7.6 4.0 4.1 3.5 4.0 3.7 3.7 4.4 4.1 4.8 4.6 4.8 5.2 5.3 5.3 5.5 5.3 4.8 4.3 4.1 3.8 3.1 2.9 2.7 3.0 2.7 2.7 3.7
3.2 3.3 3.3 3.7 3.9 4.1 4.5 4.7 5.0 5.3 6.1 5.2 4.4 4.1 3.3 3.4 3.3 3.3 3.1 2.9 3.0 4.6 5.7 5.9 6.1 6.2 6.3 6.1 5.5 5.1 4.7 4.5 4.1 3.8 3.7 4.0 4.8 3.2
3.7 3.7 3.4 5.4 4.5 4.2 4.5 4.7 4.8 4.8 5.6 6.2 4.7 4.1 3.7 3.3 2.9 2.3 2.8 3.1 3.4 4.1 5.7 6.7 7.1 7.2 6.9 7.0 6.9 6.3 6.1 5.4 5.1 5.0 4.3 4.0 6.0 6.2
4.3 4.3 4.1 4.5 4.4 4.7 5.0 5.0 4.9 5.3 5.3 5.3 5.1 5.0 4.2 3.5 3.3 3.0 2.4 2.8 3.1 4.0 5.1 5.9 6.4 6.9 6.9 7.0 7.0 6.9 6.5 5.9 6.4 9.2 9.1 8.1 7.3 7.6
5.2 5.2 4.8 4.9 4.8 5.1 5.4 5.3 5.1 4.8 4.9 5.6 5.9 5.8 5.4 5.0 4.5 4.0 3.6 3.7 3.4 4.0 4.5 5.2 5.5 6.0 6.6 7.0 7.2 6.9 6.8 7.4 8.2 9.4 9.3 9.0 7.8 6.0
5.5 5.9 6.0 6.1 6.8 6.8 6.4 4.7 4.7 4.8 5.1 5.3 5.9 6.9 6.9 6.8 5.6 5.4 5.3 5.1 4.0 3.8 3.7 3.1 3.6 3.8 3.8 5.1 6.0 6.8 7.2 7.2 8.9 8.7 8.2 8.3 8.5 8.3
6.8 7.1 6.7 7.4 7.8 9.2 9.3 9.0 7.3 5.3 4.8 5.0 5.8 6.1 6.3 6.6 6.9 6.5 6.3 6.3 5.4 5.1 4.6 3.6 3.7 3.2 3.6 5.0 6.0 6.8 7.0 7.7 8.7 9.3 9.2 8.9 8.3 8.4
7.0 7.4 7.6 8.0 8.3 7.9 8.1 9.1 8.9 9.0 9.0 7.9 7.3 7.1 7.2 7.9 7.6 7.0 7.2 7.8 6.6 5.4 5.7 4.3 4.5 3.6 3.8 4.9 5.8 6.8 7.3 7.5 8.0 8.9 9.5 9.6 9.5 9.0
7.5 7.3 7.1 6.9 6.8 7.5 7.1 7.3 7.0 6.5 6.8 7.1 6.9 6.7 7.0 7.2 7.0 6.8 6.4 6.3 6.9 6.5 6.5 5.9 5.3 4.5 4.3 4.4 5.2 6.3 7.0 7.5 7.9 8.6 9.4 9.1 8.4 8.0
7.2 7.1 6.6 6.6 7.7 9.4 8.4 8.0 6.8 7.1 7.9 8.7 9.1 9.4 9.2 9.1 8.9 8.0 7.2 6.9 6.7 7.3 7.6 6.4 5.4 5.4 4.8 4.6 5.0 5.9 7.1 7.6 9.1 9.3 9.3 9.3 8.4 7.8
7.4 7.4 8.4 8.6 9.5 9.3 8.3 7.2 7.0 7.1 7.2 7.5 7.3 7.7 8.1 7.1 8.2 7.9 7.0 6.7 7.0 7.5 7.9 7.4 6.1 6.2 7.1 5.4 5.6 5.9 6.6 7.3 7.4 7.5 8.0 8.8 8.6 7.9
7.4 7.4 7.5 8.9 9.5 9.5 9.5 8.2 7.3 7.7 7.4 8.0 8.0 6.9 6.6 6.7 6.7 6.6 6.7 7.8 7.3 7.2 8.1 6.7 6.3 5.8 6.0 5.7 4.8 6.2 6.6 6.8 7.3 7.1 8.1 7.4 7.4 7.3
7.3 7.7 7.5 8.7 9.2 8.2 8.0 8.9 9.4 9.3 8.2 7.7 7.1 7.1 7.2 7.0 7.0 6.8 6.8 6.6 6.8 7.2 7.2 7.4 6.9 6.5 6.4 6.4 6.7 6.9 5.7 5.7 6.5 7.2 6.6 8.0 8.1 7.4
8.3 8.5 9.3 9.2 8.7 7.5 7.6 8.5 9.5 8.4 7.4 6.7 6.6 6.9 7.1 7.1 6.8 6.1 6.0 6.2 6.0 6.7 7.5 7.6 6.6 6.5 6.6 6.4 6.6 6.3 6.1 5.3 5.5 6.0 6.6 7.1 6.5 6.0
7.8 7.0 7.7 8.0 8.1 8.2 8.1 7.5 7.3 7.2 7.2 7.6 7.7 7.4 6.8 6.4 6.2 6.1 6.2 6.3 6.5 6.2 6.9 7.4 6.9 6.7 6.4 6.0 6.2 6.2 5.5 6.3 4.9 6.3 7.1 6.7 6.3 6.3
7.8 6.1 4.5 5.3 6.0 6.6 6.5 6.6 6.6 6.5 6.4 6.7 7.2 7.1 7.1 7.0 6.8 6.7 6.8 6.6 6.8 6.6 6.2 6.6 6.6 6.5 6.1 6.2 6.2 6.5 6.1 6.3 6.0 5.8 6.2 6.5 6.4 5.6
6.9 3.5 2.7 2.9 4.5 5.4 5.9 6.0 6.1 6.6 6.7 7.1 7.2 7.2 7.1 7.0 6.7 6.4 6.9 6.8 6.6 6.5 6.4 6.4 6.8 6.3 6.5 6.9 6.7 6.3 6.7 7.1 7.0 5.5 5.5 6.3 6.4 5.4
4.0 3.5 3.3 3.1 3.7 4.1 4.9 5.4 5.6 6.1 6.7 6.4 6.4 6.4 6.6 6.7 7.4 6.2 6.3 6.6 6.4 6.5 6.5 6.6 6.6 6.9 7.0 7.2 6.0 8.4 6.7 6.5 5.7 5.2 5.1 6.3 7.0 6.4
3.2 3.6 3.6 3.5 3.0 3.1 3.7 4.2 4.9 5.2 5.3 5.7 5.9 6.2 6.5 6.5 6.0 5.8 6.0 6.2 6.1 5.9 6.1 6.6 6.4 6.4 6.5 6.8 6.9 6.4 7.2 7.0 6.4 6.7 7.1 7.0 6.4 7.4
3.5 3.0 3.0 3.3 3.1 2.9 3.1 3.6 4.1 4.5 4.9 5.4 6.0 5.5 5.9 6.0 5.8 6.0 6.0 6.9 7.5 6.6 6.2 6.1 6.6 8.0 6.7 5.7 5.9 6.0 5.9 7.4 8.0 6.9 6.7 7.3 7.4 7.5
3.7 3.5 3.2 3.2 3.6 3.6 3.5 3.5 3.5 3.6 3.8 4.1 4.4 4.8 5.3 5.6 5.5 5.6 5.9 6.0 6.0 6.1 6.0 6.1 6.1 6.2 5.8 6.3 6.4 5.9 5.7 5.6 6.3 7.7 8.1 8.1 7.3 7.1
3.9 4.1 4.2 4.1 4.0 3.8 3.7 3.7 3.6 3.5 3.4 3.5 3.7 4.2 4.6 4.7 5.2 5.5 5.7 5.8 5.7 5.6 5.7 5.9 6.2 6.3 6.1 6.5 7.2 7.0 6.4 6.0 6.1 5.8 5.2 6.4 7.0 7.2
Wind_Speed
4 4 4 3 4 4 4 4 3 3 3 2 2 3 4 14 15 17 16 17 19 21 22 23 23 25 26 25 26 26 29 30 30 30 30 30 31 31
4 5 5 3 4 4 5 4 5 6 5 3 3 4 14 16 19 18 17 20 21 22 22 21 22 24 25 27 28 28 29 31 32 32 32 33 32 32
5 5 7 5 5 4 5 5 6 6 9 8 8 10 12 9 16 16 16 16 17 20 21 22 23 24 25 27 29 30 31 32 33 34 34 35 35 33
6 6 8 6 7 6 5 8 7 7 7 11 10 9 11 12 15 11 16 17 16 20 24 23 23 24 25 26 28 31 32 32 34 35 36 35 36 35
7 7 9 6 8 7 7 7 7 8 8 8 10 8 8 9 10 11 10 15 18 22 24 25 23 22 24 25 27 29 32 34 36 35 34 35 36 36
9 9 9 9 10 9 8 8 8 8 9 9 9 9 9 9 7 9 10 8 9 14 18 22 26 26 28 28 28 28 30 32 33 35 38 35 35 36
9 9 10 13 18 16 8 11 11 10 9 9 10 9 8 6 8 5 8 9 11 7 9 11 12 14 17 21 23 26 27 30 32 32 34 35 32 32
11 11 10 16 15 21 22 23 16 9 13 9 9 8 8 7 8 9 9 8 10 6 5 10 8 8 11 16 24 30 33 34 35 37 38 39 37 36
8 9 9 8 14 9 15 22 20 22 22 12 12 11 12 11 10 10 12 11 12 11 6 13 7 11 14 19 28 31 33 35 37 38 39 38 38 38
8 8 9 10 10 11 11 12 12 12 11 10 12 13 13 12 12 13 15 14 13 11 8 12 9 12 10 18 29 32 35 37 38 39 39 39 39 39
8 8 9 10 16 21 13 13 10 9 17 27 30 32 31 29 25 11 9 8 10 11 7 10 13 12 10 12 18 28 34 36 36 36 37 38 38 39
8 9 17 14 20 22 13 9 10 11 11 12 10 14 19 14 22 13 9 11 12 14 8 11 11 7 6 8 11 15 16 20 23 28 30 35 35 13
7 7 7 18 20 22 23 10 9 10 11 10 9 6 8 8 8 9 9 9 11 13 9 8 8 8 8 9 5 5 8 13 14 19 29 29 29 19
6 6 7 19 22 19 13 17 21 21 10 7 6 8 9 8 7 6 11 13 16 15 16 12 7 6 8 10 11 9 10 10 11 11 8 21 25 25
7 12 21 17 15 10 15 20 21 7 6 7 8 8 8 7 9 10 10 16 15 18 19 19 12 12 10 11 9 9 10 7 9 10 10 9 10 7
13 8 6 8 12 13 12 9 6 6 7 8 7 6 7 7 8 7 8 8 9 10 12 17 15 14 12 11 11 13 11 9 5 7 9 8 8 9
9 1 1 3 4 5 5 6 5 5 6 7 7 7 8 7 8 7 7 8 9 9 9 7 8 13 12 15 11 11 11 11 11 11 9 9 10 10
3 0 2 3 5 5 6 6 5 8 6 7 7 7 7 8 8 8 7 7 9 8 8 7 7 8 7 11 22 12 11 11 10 8 7 8 11 10
1 3 4 4 5 5 5 6 7 6 8 7 7 7 8 8 11 8 8 8 8 8 8 7 7 6 8 8 5 17 11 9 7 6 6 8 10 12
2 5 5 5 5 5 5 6 6 6 6 7 7 8 7 7 8 8 8 8 9 9 9 7 6 7 7 7 7 9 13 9 6 7 9 9 10 19
5 5 6 6 6 6 6 6 7 7 7 7 6 7 8 7 8 8 9 16 15 8 9 8 8 15 6 4 6 7 8 14 15 10 7 8 9 9
6 7 6 6 7 7 6 6 7 7 7 7 7 7 8 8 8 9 9 9 9 9 10 9 9 6 5 7 10 10 8 8 12 19 21 18 9 9
7 7 7 7 7 7 7 7 7 7 7 8 7 8 8 8 9 9 10 10 10 10 10 10 8 7 8 8 13 9 11 11 8 8 8 18 22 24
Wind_Direction
270 262 245 230 233 233 236 236 237 296 312 293 306 269 271 298 292 294 288 292 300 303 304 302 301 301 301 298 296 297 297 296 294 292 289 291 287 294
259 247 256 238 236 238 243 236 222 235 266 262 254 281 296 291 290 292 286 295 293 296 298 297 295 295 295 295 295 294 292 291 290 289 287 285 281 277
247 251 259 243 249 238 230 236 235 230 253 271 276 289 288 281 285 282 274 264 265 279 288 294 296 295 292 290 290 290 289 286 285 284 283 280 278 277
253 248 257 257 251 237 234 239 236 236 246 261 278 284 283 290 284 282 283 282 275 273 281 286 290 294 294 292 288 285 284 285 281 279 278 276 277 274
245 243 254 240 252 247 239 243 240 249 242 253 270 272 274 280 287 282 279 275 268 276 282 285 288 289 289 289 289 287 282 282 281 283 279 278 277 277
245 241 244 238 244 251 252 248 247 246 249 257 256 262 262 265 254 272 283 277 279 273 271 273 279 285 289 289 288 284 279 277 277 279 274 275 272 274
249 249 251 249 254 253 244 242 238 240 247 252 258 258 256 246 245 257 260 278 277 264 270 263 257 259 269 280 281 281 282 281 281 282 282 278 275 274
260 262 252 261 268 274 276 273 248 224 239 248 255 248 253 254 256 257 263 266 281 214 244 269 243 259 256 260 269 278 279 277 272 274 276 275 275 275
250 258 262 258 268 267 275 276 282 283 281 278 279 278 279 276 266 264 264 258 259 258 257 275 260 270 267 268 271 274 276 274 272 270 268 268 269 270
261 256 255 260 257 261 257 254 251 251 257 263 264 267 266 260 253 254 258 262 264 259 232 263 267 261 267 262 265 270 273 272 271 270 267 267 267 265
262 257 251 254 260 270 271 266 260 257 261 270 275 279 282 287 287 281 273 268 272 268 226 241 264 262 263 265 263 266 270 271 273 271 269 264 265 258
268 259 269 275 272 276 274 266 270 268 269 273 273 279 279 280 280 277 273 267 273 278 256 239 252 249 267 245 246 249 257 262 271 285 286 278 265 277
261 264 258 271 282 283 277 273 271 272 277 284 283 281 273 270 267 259 258 265 269 267 268 251 253 236 231 261 247 240 261 270 274 273 274 271 279 274
270 266 262 274 282 295 305 299 303 304 295 291 282 280 282 280 273 274 273 272 267 267 272 261 266 242 245 255 264 261 254 254 256 258 258 270 270 279
282 274 289 306 314 318 305 300 298 301 290 277 275 275 274 277 282 279 273 270 266 267 267 258 252 256 252 253 263 264 263 255 246 251 257 255 261 267
284 291 299 310 305 297 300 296 286 279 271 267 274 284 279 276 274 273 276 282 281 282 274 256 251 249 252 246 249 262 259 254 255 246 247 252 263 267
291 173 281 287 289 288 284 279 278 276 275 275 274 279 277 279 278 278 270 278 276 287 291 285 260 251 246 246 250 252 255 253 251 253 252 257 267 268
356 257 274 267 274 281 283 283 280 285 281 282 281 281 281 281 282 280 275 275 278 281 282 288 290 293 288 256 234 253 256 260 259 241 245 257 272 270
230 255 261 256 263 264 267 271 278 279 286 285 282 279 280 282 293 287 283 282 280 280 278 275 275 280 290 282 269 240 251 254 251 246 244 252 269 277
239 264 267 264 259 255 259 262 271 276 275 278 281 280 278 281 280 279 279 281 280 279 275 267 255 267 268 277 280 283 276 275 264 269 272 275 274 272
279 267 256 260 260 257 259 261 260 266 271 273 281 281 279 278 278 276 277 284 291 287 282 276 268 270 273 285 275 272 272 255 256 260 262 267 278 285
272 270 270 263 263 260 261 261 265 269 269 268 269 272 276 275 274 277 275 276 277 275 274 276 279 266 249 257 272 275 278 271 261 263 266 269 269 268
285 284 281 275 265 260 256 257 258 266 265 265 267 269 269 272 273 273 273 274 275 276 276 276 275 263 256 261 272 278 280 283 282 274 262 258 265 267